Location: Miami, Florida
(25.6830°N, 80.1700°W)
Time: 06:15:08
(UTC-04:00)

Tiangong 2 - Pass Details

Date: 26 April 2019
Orbit: 379 x 387 km, 42.8° (Epoch: 26 May)

Event Time Altitude Azimuth Distance (km) Brightness Sun altitude
Rises 06:19:21 0° 197° (SSW) 2,239 4.6 -7.1°
Reaches altitude 10° 06:22:03 10° 171° (S) 1,392 3.8 -6.5°
Maximum altitude 06:23:53 15° 136° (SE) 1,156 3.8 -6.1°
Drops below altitude 10° 06:25:44 10° 100° (E) 1,399 5.1 -5.7°
Sets 06:28:27 0° 74° (ENE) 2,257 8.0 -5.1°
